SCOUT A DEB, 3214

Orbit data source: Space-Track

SCOUT A DEB, 3214 is space debris in LEO originally from a launch on Sat, 02 Mar 1968 UTC launched from the Air Force Western Test Range (AFWTR). Debris objects in space refer to the collection of defunct objects orbiting the Earth. Examples of debris include non-operational satellites, rocket bodies, and fragments generated from explosions, collisions, or faulty payload assembly.

Loading next visibility...
Identifier
3214, 1968-012D
Orbit
LEO
Last TLE update
3 days ago
Origin
Manufacturer
Unknown
Mission
Spacecraft
Bus & Motor
Unknown
Mass
Unknown
Launch date (UTC)
1968-03-02 (57 years ago)
Launch vehicle
Unknown
Launch site
Air Force Western Test Range (AFWTR)
Object type
Payload
Rocket body
Debris
Shape & HBR
Unknown
Radar Cross Section
Small (<0.1 m²)

Expand to show TLE details & history

TLE from 3 days ago
0 SCOUT A DEB
1 03214U 68012D   25197.22874742  .00000152  00000-0  27744-3 0  9992
2 03214  89.8337 109.3449 0187668 114.1626  39.3942 13.29172709539904
Epoch: 2025-07-16T05:29Z
TLE epoch observation values (Epoch: 2025-07-16T05:29:23.777Z)
Latitude
25.08014°
Longitude
-87.39352°
Altitude
1,044.843 km
Speed
7.384 km/s
True Right ascension
19h 17m 04s
True Declination
24° 57' 12"
Sunlit
Object was in full shadow at epoch
Visualization orbit readout
Latitude
3.77542°
Longitude
92.65027°
Altitude
1,180.726 km
Speed
7.25 km/s
Apparent Right ascension
04h 50m 38s
Apparent Declination
-24° 08' 06"
Sunlit
Object is in daylight
Visualization observer readout
Local Sidereal Time
12:23:26
Azimuth
264.354° W
Elevation
-32.555°
Doppler factor
1
Orbital elements
Apogee altitude
1,288.186 km
Perigee altitude
1,005.742 km
Semi-major axis
7,525.101 km
Eccentricity
0.01877
Inclination
89.8337°
RAAN
109.3449°
Arg. of periapsis
114.1626°
True anomaly
40.78407°
Mean anomaly
39.3942°
Eccentric anomaly
40.08661°
Mean motion
3.32487 °/min
Orbital period
108.27 mins
BSTAR
0.00027744
Loading maneuver chart data...
Loading SW <> Apogee altitude chart data...
Loading historical data...
Loading historical data...
Loading historical data...
Loading historical data...
Loading historical data...
Loading historical data...
Loading historical data...
|